Weather History for Menomonie, WI

Change the Weather History Date:

Saturday, October 5, 2013

  Actual Average (KEAU) Record (KEAU)
Temperature  
Mean Temperature 56 °F 52 °F  
Max Temperature 62 °F 63 °F 84 °F (1922)
Min Temperature 49 °F 40 °F 19 °F (1952)
Degree Days  
Heating Degree Days 9 14  
Month to date heating degree days 65  
Since 1 July heating degree days 298  
Cooling Degree Days 0 0  
Month to date cooling degree days 0  
Year to date cooling degree days 575  
Growing Degree Days 6 (Base 50)    
Moisture  
Dew Point 57 °F    
Average Humidity 96    
Maximum Humidity 99    
Minimum Humidity 90    
Precipitation  
Precipitation 0.73 in 0.10 in 1.39 in (1941)
Month to date precipitation 0.50  
Year to date precipitation 26.30  
Snow  
Snow 0.00 in 0.00 in 0.00 in ()
Month to date snowfall 0.0  
Since 1 July snowfall 0.0  
Since 1 September snowfall 0.0  
Snow Depth -    
Sea Level Pressure  
Sea Level Pressure 29.81 in    
Wind  
Wind Speed 6 mph (East)    
Max Wind Speed 13 mph    
Max Gust Speed 21 mph    
Visibility 7 miles    
Events Rain , Thunderstorm    
T = Trace of Precipitation, MM = Missing Value Source: NWS Daily Summary

Daily Weather History Graph

Daily Weather History Graph

Search for Another Location

Airport:

Trip Planner

Search our weather history database for the weather conditions in past years. The results will help you decide how hot, cold, wet, or windy it might be!

Date:

Astronomy

Oct. 05, 2013 Rise Set
Actual Time 7:10 AM CDT 6:40 PM CDT
Civil Twilight 6:41 AM CDT 7:09 PM CDT
Nautical Twilight 6:07 AM CDT 7:43 PM CDT
Astronomical Twilight 5:33 AM CDT 8:17 PM CDT
Moon 7:53 AM CDT (10/5) 6:55 PM CDT (10/5)
Length of Visible Light 12h 27m
Length of Day
11h 29m
New Moon, 1% of the Moon is Illuminated
Oct 5
New Moon
Oct 11
First Quarter
Oct 18
Full
Oct 26
Last Quarter
Nov 3
New

Hourly Weather History & Observations

Time (CDT) Temp. Dew Point Humidity Pressure Visibility Wind Dir Wind Speed Gust Speed Precip Events Conditions
12:15 AM 56.8 °F 54.7 °F 92% 29.90 in 10.0 mi East 10.4 mph 17.3 mph N/A Rain Light Rain
12:35 AM 57.2 °F 54.9 °F 92% 29.92 in 7.0 mi East 8.1 mph - 0.02 in Rain , Thunderstorm Light Thunderstorms and Rain
12:55 AM 56.8 °F 55.0 °F 94% 29.92 in 5.0 mi ENE 6.9 mph - 0.09 in Rain , Thunderstorm Thunderstorms and Rain
1:15 AM 56.5 °F 55.4 °F 96% 29.94 in 4.0 mi Calm Calm - 0.08 in Rain Heavy Rain
1:35 AM 56.3 °F 55.4 °F 97% 29.91 in 5.0 mi East 9.2 mph - 0.17 in Rain Rain
1:55 AM 56.3 °F 55.4 °F 97% 29.89 in 7.0 mi ENE 5.8 mph 10.4 mph 0.20 in Rain Rain
2:15 AM 56.1 °F 55.4 °F 97% 29.88 in 10.0 mi NE 6.9 mph - N/A   Overcast
2:35 AM 56.3 °F 55.4 °F 97% 29.86 in 10.0 mi NE 6.9 mph - N/A   Overcast
2:55 AM 56.3 °F 55.6 °F 97% 29.86 in 10.0 mi ENE 8.1 mph - N/A   Overcast
3:15 AM 56.5 °F 56.1 °F 99% 29.85 in 10.0 mi ENE 8.1 mph - N/A   Overcast
3:35 AM 56.8 °F 56.3 °F 98% 29.83 in 10.0 mi ENE 10.4 mph - N/A   Overcast
3:55 AM 56.8 °F 56.3 °F 98% 29.82 in 10.0 mi ENE 12.7 mph - N/A   Overcast
4:15 AM 56.8 °F 56.3 °F 98% 29.83 in 10.0 mi ENE 6.9 mph - N/A   Overcast
4:35 AM 57.2 °F 56.5 °F 97% 29.83 in 10.0 mi Calm Calm - N/A   Overcast
4:55 AM 57.4 °F 56.8 °F 98% 29.86 in 10.0 mi Calm Calm - N/A   Overcast
5:15 AM 57.7 °F 57.2 °F 98% 29.84 in 10.0 mi Calm Calm - N/A   Overcast
5:35 AM 58.3 °F 57.7 °F 98% 29.85 in 10.0 mi East 3.5 mph - N/A   Overcast
5:55 AM 58.5 °F 57.7 °F 97% 29.86 in 10.0 mi ENE 3.5 mph - N/A   Overcast
6:15 AM 58.5 °F 57.6 °F 97% 29.85 in 10.0 mi East 4.6 mph - N/A   Overcast
6:35 AM 58.5 °F 57.6 °F 97% 29.86 in 10.0 mi East 3.5 mph - N/A   Overcast
6:55 AM 59.0 °F 58.1 °F 97% 29.83 in 10.0 mi East 12.7 mph - N/A Rain Light Rain
7:15 AM 59.0 °F 57.6 °F 95% 29.85 in 10.0 mi East 5.8 mph 9.2 mph N/A Rain Light Rain
7:35 AM 59.0 °F 57.4 °F 94% 29.84 in 10.0 mi East 5.8 mph - N/A   Overcast
7:55 AM 59.0 °F 57.4 °F 94% 29.84 in 10.0 mi East 9.2 mph - N/A   Overcast
8:15 AM 59.2 °F 57.4 °F 94% 29.83 in 10.0 mi East 9.2 mph - N/A   Overcast
8:35 AM 59.2 °F 57.4 °F 94% 29.83 in 10.0 mi East 9.2 mph - 0.01 in Rain Rain
8:55 AM 59.0 °F 57.4 °F 94% 29.83 in 10.0 mi East 11.5 mph - 0.03 in Rain Rain
9:15 AM 59.5 °F 58.1 °F 95% 29.82 in 10.0 mi East 10.4 mph - N/A   Overcast
9:35 AM 59.5 °F 57.7 °F 94% 29.84 in 10.0 mi East 10.4 mph - N/A   Overcast
9:55 AM 59.9 °F 58.1 °F 94% 29.85 in 10.0 mi East 6.9 mph - N/A   Overcast
10:15 AM 60.1 °F 58.3 °F 94% 29.85 in 10.0 mi East 5.8 mph - N/A   Overcast
10:35 AM 60.1 °F 58.5 °F 94% 29.86 in 10.0 mi East 8.1 mph - N/A   Overcast
10:55 AM 60.1 °F 58.5 °F 94% 29.85 in 7.0 mi East 8.1 mph - N/A   Overcast
11:15 AM 60.3 °F 58.6 °F 94% 29.85 in 5.0 mi East 6.9 mph - N/A   Overcast
11:35 AM 60.3 °F 59.0 °F 96% 29.84 in 1.5 mi East 6.9 mph - N/A   Overcast
11:55 AM 60.3 °F 59.0 °F 96% 29.84 in 1.5 mi East 6.9 mph - N/A   Overcast
12:15 PM 60.8 °F 59.4 °F 95% 29.84 in 0.8 mi East 4.6 mph - N/A   Overcast
12:35 PM 61.0 °F 59.9 °F 96% 29.83 in 0.8 mi East 5.8 mph - N/A   Overcast
12:55 PM 61.3 °F 60.3 °F 96% 29.82 in 1.0 mi East 8.1 mph - N/A   Overcast
1:15 PM 61.7 °F 60.4 °F 96% 29.81 in 1.2 mi East 6.9 mph - N/A   Overcast
1:35 PM 61.7 °F 60.8 °F 97% 29.80 in 1.2 mi East 5.8 mph - N/A   Overcast
1:55 PM 61.9 °F 60.8 °F 96% 29.79 in 1.0 mi East 5.8 mph - N/A   Overcast
2:15 PM 62.2 °F 61.2 °F 96% 29.78 in 1.2 mi East 4.6 mph - N/A   Overcast
2:35 PM 62.2 °F 61.2 °F 96% 29.79 in 1.0 mi East 3.5 mph - N/A   Overcast
2:55 PM 62.6 °F 61.3 °F 96% 29.78 in 1.2 mi ESE 4.6 mph - N/A   Overcast
3:15 PM 62.6 °F 61.3 °F 96% 29.77 in 2.5 mi East 4.6 mph - N/A   Overcast
3:35 PM 62.6 °F 61.7 °F 97% 29.77 in 4.0 mi East 3.5 mph - N/A   Overcast
3:55 PM 62.6 °F 61.5 °F 96% 29.76 in 4.0 mi Calm Calm - N/A   Overcast
4:15 PM 62.2 °F 61.2 °F 96% 29.74 in 5.0 mi NNE 3.5 mph - N/A   Overcast
4:35 PM 62.4 °F 61.3 °F 96% 29.73 in 5.0 mi Calm Calm - N/A   Overcast
4:55 PM 62.6 °F 61.3 °F 96% 29.73 in 5.0 mi Calm Calm - 0.01 in Rain Rain
5:15 PM 62.2 °F 61.2 °F 96% 29.73 in 2.5 mi Calm Calm - 0.03 in Rain , Thunderstorm Heavy Thunderstorms and Rain
5:35 PM 61.7 °F 60.8 °F 97% 29.73 in 2.0 mi WSW 12.7 mph - 0.17 in Rain Rain
5:55 PM 59.0 °F 58.1 °F 97% 29.73 in 3.0 mi West 8.1 mph - 0.31 in Rain Heavy Rain
6:15 PM 58.1 °F 57.4 °F 97% 29.73 in 5.0 mi WNW 6.9 mph - 0.04 in Rain Light Rain
6:35 PM 57.4 °F 56.7 °F 97% 29.74 in 10.0 mi West 6.9 mph - 0.05 in Rain Light Rain
6:55 PM 57.6 °F 57.0 °F 98% 29.75 in 10.0 mi WSW 9.2 mph - 0.06 in Rain Rain
7:15 PM 55.8 °F 55.4 °F 99% 29.74 in 10.0 mi WSW 12.7 mph 20.7 mph 0.01 in   Light Drizzle
7:35 PM 54.3 °F 53.8 °F 98% 29.75 in 10.0 mi WSW 11.5 mph - 0.01 in Rain Light Rain
7:55 PM 53.6 °F 53.1 °F 98% 29.73 in 10.0 mi NW 4.6 mph - 0.03 in Rain Light Rain
8:15 PM 53.6 °F 53.1 °F 98% 29.73 in 10.0 mi Calm Calm - N/A   Overcast
8:35 PM 54.0 °F 53.6 °F 99% 29.74 in 10.0 mi Calm Calm - N/A   Overcast
8:55 PM 53.1 °F 51.8 °F 95% 29.76 in 10.0 mi South 6.9 mph - N/A   Scattered Clouds
9:15 PM 52.7 °F 50.9 °F 94% 29.76 in 10.0 mi SSW 6.9 mph - N/A   Scattered Clouds
9:35 PM 52.0 °F 50.7 °F 95% 29.77 in 10.0 mi SSW 6.9 mph - N/A   Mostly Cloudy
9:55 PM 52.0 °F 50.5 °F 95% 29.77 in 10.0 mi Calm Calm - N/A   Overcast
10:15 PM 51.8 °F 50.2 °F 94% 29.77 in 10.0 mi WSW 4.6 mph - N/A   Mostly Cloudy
10:35 PM 51.4 °F 49.5 °F 93% 29.77 in 10.0 mi WSW 3.5 mph - N/A   Mostly Cloudy
10:55 PM 51.1 °F 48.4 °F 90% 29.77 in 10.0 mi West 4.6 mph - N/A   Overcast
11:15 PM 50.0 °F 47.7 °F 92% 29.76 in 10.0 mi Calm Calm - N/A   Scattered Clouds
11:35 PM 50.0 °F 47.5 °F 91% 29.76 in 10.0 mi Calm Calm - N/A   Clear
11:55 PM 49.1 °F 47.1 °F 93% 29.75 in 10.0 mi Calm Calm - N/A   Clear